Content
SEND FEEDBACK

Daily
Averages
Monthly
Summary
United States of America

BERKELEY, MISSOURI


Home > North America > United States > Missouri
Elevation: 564 feet     Latitude: 38 45N     Longitude: 090 22W

WEATHER
 
SELECT A DAY
Number of Records: 203,667;   Date Range: 1/1/95 - 9/18/14
 
SHARE

PRINT THIS DATA

[ ← Previous Day ]
WEATHER ALMANAC - FEBRUARY 24, 2013
[ Next Day → ]
[ °C ]   °F
Weather ElementAverageHighLow
Temperature30.5 °F42.1 °F (3:51 pm)19 °F (5:51 am)
Dewpoint20.8 °F26.1 °F (5:51 pm)12.9 °F (5:51 am)
Humidity68.7 %86 % (7:18 am)47 % (1:51 pm)
Barometer30.12 in30.17 in (10:51 am)30.08 in (3:51 am)
Wind Speed4.7 mph10.4 mph (3:51 pm)
Weather ElementAverage
Visibility7.5 mi
Wind DirectionENE (64.8 °)

Weather ElementTotal
Precipitation---
Heating Degree Days34.5 (Base 65)
Averaged from 27 records on February 24, 2013
WEATHER CONDITIONS BREAKOUT
WIND DIRECTION BREAKOUT
WEATHER BY HOUR - FEBRUARY 24, 2013
[ °C ]   °F
Local TimeTemperatureDewpointHumidityBarometerVisibilityWind DirectionWind SpeedGust SpeedPrecipitationEventsConditions
1:51 AM21.9 °F16.0 °F78 %30.09 in6.0 miCalmHaze
2:51 AM19.9 °F16.0 °F85 %30.09 in6.0 miCalmClear
3:51 AM21.0 °F15.1 °F78 %30.08 in6.0 miCalmHaze
4:51 AM21.0 °F15.1 °F78 %30.10 in6.0 miCalmHaze
5:51 AM19.0 °F12.9 °F77 %30.12 in6.0 miCalmHaze
6:51 AM19.0 °F15.1 °F85 %30.14 in5.0 miCalmPartly Cloudy
7:18 AM19.4 °F15.8 °F86 %30.10 in4.0 miCalmHaze
7:51 AM21.9 °F18.0 °F85 %30.15 in4.0 miCalmPartly Cloudy
7:58 AM21.2 °F17.6 °F86 %30.12 in3.0 miCalmPartly Cloudy
8:05 AM23.0 °F17.6 °F80 %30.12 in4.0 miENE (60°)4.6 mphHaze
8:51 AM28.0 °F21.0 °F75 %30.16 in4.0 miCalmHaze
9:10 AM28.4 °F21.2 °F74 %30.13 in5.0 miESE (110°)5.8 mphHaze
9:51 AM34.0 °F24.1 °F67 %30.16 in5.0 miEast (100°)5.8 mphHaze
10:51 AM37.0 °F21.9 °F54 %30.17 in9.0 miESE (110°)8.1 mphPartly Cloudy
11:51 AM39.0 °F23.0 °F53 %30.16 in10.0 miEast (100°)9.2 mphPartly Cloudy
12:51 PM39.9 °F21.9 °F49 %30.15 in10.0 miESE (120°)8.1 mphPartly Cloudy
1:51 PM41.0 °F21.9 °F47 %30.13 in10.0 miSE (140°)8.1 mphPartly Cloudy
2:51 PM41.0 °F21.9 °F47 %30.11 in10.0 miESE (120°)9.2 mphPartly Cloudy
3:51 PM42.1 °F24.1 °F49 %30.10 in10.0 miESE (120°)10.4 mphPartly Cloudy
4:51 PM41.0 °F25.0 °F53 %30.09 in10.0 miESE (110°)10.4 mphClear
5:51 PM39.0 °F26.1 °F60 %30.10 in10.0 miEast (90°)10.4 mphPartly Cloudy
6:51 PM37.9 °F26.1 °F62 %30.11 in10.0 miESE (110°)10.4 mphPartly Cloudy
7:51 PM36.0 °F25.0 °F64 %30.11 in10.0 miEast (100°)6.9 mphPartly Cloudy
8:51 PM34.0 °F24.1 °F67 %30.10 in10.0 miESE (110°)4.6 mphPartly Cloudy
9:51 PM34.0 °F25.0 °F70 %30.09 in10.0 miEast (100°)6.9 mphPartly Cloudy
10:51 PM33.1 °F25.0 °F72 %30.08 in10.0 miENE (70°)3.5 mphPartly Cloudy
11:51 PM32.0 °F24.1 °F73 %30.08 in10.0 miEast (80°)3.5 mphScattered Clouds
Hourly data recorded from KSTL, located miles away from Berkeley, Missouri







STORIES FROM OUR PARTNERS